User: anonymous   Login
Location: Ar Ranvel
(48.3000°N, 4.8833°W)
Time: 09:38:13
(UTC+00:00)
Language:

Cosmos 1513 Rocket - Orbit

View from above orbital plane
View from above orbital plane
View from above satellite
View from above satellite

Ground track
Ground track

The orbit data is extracted from the following two-line orbital elements,

1 14547U 83120B   21267.79037416  .00000067  00000-0  51502-4 0  9990
2 14547  82.9361   9.9522 0046974 177.4389 182.7018 13.77141794655252
Epoch (UTC): 24 September 2021 18:58:08
Eccentricity: 0.0046974
inclination: 82.9361°
perigee height: 939 km
apogee height: 1008 km
right ascension of ascending node: 9.9522°
argument of perigee: 177.4389°
revolutions per day: 13.77141794
mean anomaly at epoch: 182.7018°
orbit number at epoch: 65525

The dashed part of the orbit path shows where the satellite is in the earth's shadow,  

DLR